Home   Weather   Worcester   Past weeks

Flag for USA Past Weather in Worcester, Massachusetts, USA — Yesterday and Last 2 Weeks

Now
54 °F

Low clouds.


Feels Like: 51 °F
Forecast: 54 / 58 °F
Wind: 9 mph from Northeast

Location: Worcester Regional Airport

Current Time: Sep 28, 2016 at 9:45:22 AM

Latest Report: Sep 28, 2016 at 8:54 AM


Visibility: 10 mi

Pressure: 30.20 "Hg

Humidity: 86%

Dew Point: 50 °F

Location of WorcesterLocation

Past Weather in Worcester — Graph

°F

Worcester Temperature Yesterday

Maximum temperature yesterday: 69 °F (at 2:54 PM)
Minimum temperature yesterday: 57 °F (at 12:54 AM)
Average temperature yesterday: 62 °F

High & Low Weather Summary for the Past Weeks

 TemperatureHumidityPressure
High81 °F (Sep 14, 1:54 PM)100% (Sep 19, 11:54 PM)30.37 "Hg (Sep 19, 11:54 PM)
Low41 °F (Sep 26, 6:54 AM)27% (Sep 21, 12:54 PM)29.90 "Hg (Sep 27, 2:54 PM)
Average63 °F68%30.13 "Hg
* Reported Sep 13 7:54 AM — Sep 28 7:54 AM, Worcester, Weather by CustomWeather, © 2016

Note: Actual official high and low records may vary slightly from our data, if they occured in-between our weather recording intervals... More about our weather records

Advertising

Worcester Weather History for the Previous 24 Hours

Scroll right to see more
 ConditionsComfort  
Time TempWeatherWind HumidityBarometerVisibility
7:54 AM
Wed, Sep 28
54 °FLow clouds.10 mph97%30.17 "Hg9 mi
6:54 AM55 °FLow clouds.8 mph96%30.15 "Hg9 mi
5:54 AM55 °FMostly cloudy.7 mph96%30.12 "Hg10 mi
4:54 AM56 °FFog.12 mph97%30.11 "Hg0 mi
3:54 AM57 °FLight rain. Fog.6 mph96%30.09 "Hg0 mi
2:54 AM57 °FFog.7 mph96%30.07 "Hg0 mi
1:54 AM58 °FFog.6 mph97%30.06 "Hg0 mi
12:54 AM58 °FFog.5 mph97%30.04 "Hg0 mi
11:54 PM
Tue, Sep 27
58 °FClear.6 mph90%30.03 "Hg10 mi
10:54 PM60 °FClear.6 mph80%30.01 "Hg10 mi
9:54 PM61 °FPassing clouds.5 mph75%29.99 "Hg10 mi
8:54 PM62 °FClear.5 mph75%29.98 "Hg10 mi
7:54 PM60 °FPassing clouds.No wind80%29.96 "Hg10 mi
6:54 PM63 °FClear.3 mph75%29.94 "Hg10 mi
5:54 PM68 °FPassing clouds.No wind59%29.92 "Hg10 mi
4:54 PM67 °FBroken clouds.5 mph61%29.91 "Hg10 mi
3:54 PM68 °FPassing clouds.No wind59%29.91 "Hg10 mi
2:54 PM69 °FOvercast.No wind61%29.90 "Hg10 mi
1:54 PM68 °FSunny.No wind57%29.91 "Hg10 mi
12:54 PM66 °FSunny.3 mph61%29.91 "Hg10 mi
11:54 AM65 °FScattered clouds.5 mph76%29.92 "Hg10 mi
10:54 AM63 °FSunny.7 mph78%29.92 "Hg10 mi
9:54 AM62 °FPartly sunny.8 mph86%29.92 "Hg10 mi
Weather by CustomWeather, © 2016

See weather overviewHow to use our weather pages